Weather History for KGEV - May, 2012

Change the Weather History Date:

Sunday, May 20, 2012

  Actual Average Record
Temperature  
Mean Temperature 60 °F -  
Max Temperature 71 °F 72 °F 84 °F (1970)
Min Temperature 48 °F 49 °F 33 °F (2002)
Degree Days  
Heating Degree Days 6    
Growing Degree Days 10 (Base 50)    
Moisture  
Dew Point 45 °F    
Average Humidity 57    
Maximum Humidity 87    
Minimum Humidity 33    
Precipitation  
Precipitation 0.00 in - - ()
Sea Level Pressure  
Sea Level Pressure 30.21 in    
Wind  
Wind Speed 2 mph (East)    
Max Wind Speed 10 mph    
Max Gust Speed 16 mph    
Visibility 10 miles    
Events      
Averages and records for this station are not official NWS values.
T = Trace of Precipitation, MM = Missing Value Source: NWS Daily Summary

Daily Weather History Graph

Daily Weather History Graph

Search for Another Location

Airport or City:

Trip Planner

Search our weather history database for the weather conditions in past years. The results will help you decide how hot, cold, wet, or windy it might be!

Date:

Astronomy

May. 20, 2012 Rise Set
Actual Time 6:14 AM EDT 8:29 PM EDT
Civil Twilight 5:45 AM EDT 8:59 PM EDT
Nautical Twilight 5:10 AM EDT 9:35 PM EDT
Astronomical Twilight 4:31 AM EDT 10:14 PM EDT
Moon 5:54 AM EDT (5/20) 8:27 PM EDT (5/20)
Length of Visible Light 15h 13m
Length of Day
14h 15m
Waning Crescent, 0% of the Moon is Illuminated
May 20
Waning Crescent
May 20
New
May 28
First Quarter
Jun 4
Full
Jun 11
Last Quarter

Hourly Weather History & Observations

Time (EDT) Temp. Dew Point Humidity Pressure Visibility Wind Dir Wind Speed Gust Speed Precip Events Conditions
12:55 AM 60.8 °F 44.6 °F 55% 30.24 in 10.0 mi Calm Calm - N/A   Clear
1:15 AM 50.0 °F 46.4 °F 87% 30.24 in 10.0 mi Calm Calm - N/A   Clear
1:35 AM 55.4 °F 46.4 °F 72% 30.23 in 10.0 mi Calm Calm - N/A   Clear
1:55 AM 51.8 °F 46.4 °F 82% 30.23 in 10.0 mi SW 3.5 mph - N/A   Clear
2:15 AM 53.6 °F 46.4 °F 77% 30.23 in 10.0 mi Calm Calm - N/A   Clear
2:35 AM 53.6 °F 46.4 °F 77% 30.22 in 10.0 mi Calm Calm - N/A   Clear
2:55 AM 53.6 °F 44.6 °F 72% 30.22 in 10.0 mi Calm Calm - N/A   Clear
3:15 AM 53.6 °F 44.6 °F 72% 30.22 in 10.0 mi WSW 3.5 mph - N/A   Clear
3:35 AM 53.6 °F 44.6 °F 72% 30.22 in 10.0 mi Calm Calm - N/A   Clear
3:55 AM 55.4 °F 44.6 °F 67% 30.21 in 10.0 mi Calm Calm - N/A   Clear
4:15 AM 53.6 °F 44.6 °F 72% 30.21 in 10.0 mi Calm Calm - N/A   Clear
4:35 AM 51.8 °F 44.6 °F 76% 30.21 in 10.0 mi Calm Calm - N/A   Clear
4:55 AM 51.8 °F 44.6 °F 76% 30.21 in 10.0 mi Calm Calm - N/A   Clear
5:35 AM 51.8 °F 44.6 °F 76% 30.21 in 10.0 mi Calm Calm - N/A   Clear
5:55 AM 50.0 °F 44.6 °F 82% 30.21 in 10.0 mi Calm Calm - N/A   Clear
6:15 AM 50.0 °F 44.6 °F 82% 30.21 in 10.0 mi Calm Calm - N/A   Clear
6:35 AM 50.0 °F 44.6 °F 82% 30.22 in 10.0 mi Calm Calm - N/A   Clear
6:55 AM 48.2 °F 44.6 °F 87% 30.23 in 10.0 mi Calm Calm - N/A   Clear
7:15 AM 50.0 °F 46.4 °F 87% 30.23 in 10.0 mi Calm Calm - N/A   Clear
7:35 AM 53.6 °F 46.4 °F 77% 30.24 in 10.0 mi Calm Calm - N/A   Clear
7:55 AM 55.4 °F 46.4 °F 72% 30.23 in 10.0 mi Calm Calm - N/A   Clear
8:35 AM 55.4 °F 50.0 °F 82% 30.24 in 10.0 mi Calm Calm - N/A   Clear
8:55 AM 57.2 °F 46.4 °F 67% 30.24 in 10.0 mi Calm Calm - N/A   Clear
9:15 AM 59.0 °F 46.4 °F 63% 30.24 in 10.0 mi Calm Calm - N/A   Clear
9:55 AM 62.6 °F 46.4 °F 55% 30.24 in 10.0 mi Calm Calm - N/A   Clear
10:15 AM 62.6 °F 46.4 °F 55% 30.24 in 10.0 mi Calm Calm - N/A   Clear
10:35 AM 64.4 °F 48.2 °F 56% 30.25 in 10.0 mi NE 5.8 mph - N/A   Clear
10:55 AM 64.4 °F 46.4 °F 52% 30.24 in 10.0 mi East 5.8 mph - N/A   Clear
11:15 AM 64.4 °F 46.4 °F 52% 30.25 in 10.0 mi East 6.9 mph - N/A   Clear
11:55 AM 68.0 °F 44.6 °F 43% 30.24 in 10.0 mi East 8.1 mph - N/A   Clear
12:15 PM 68.0 °F 42.8 °F 40% 30.24 in 10.0 mi East 4.6 mph - N/A   Clear
12:35 PM 68.0 °F 44.6 °F 43% 30.24 in 10.0 mi East 4.6 mph - N/A   Clear
12:55 PM 68.0 °F 42.8 °F 40% 30.23 in 10.0 mi East 6.9 mph - N/A   Clear
1:15 PM 68.0 °F 42.8 °F 40% 30.23 in 10.0 mi East 6.9 mph - N/A   Clear
1:35 PM 69.8 °F 42.8 °F 38% 30.22 in 10.0 mi NNE 3.5 mph - N/A   Clear
1:55 PM 69.8 °F 41.0 °F 35% 30.21 in 10.0 mi East 4.6 mph - N/A   Clear
2:15 PM 69.8 °F 39.2 °F 33% 30.20 in 10.0 mi East 5.8 mph 16.1 mph N/A   Clear
2:35 PM 69.8 °F 39.2 °F 33% 30.20 in 10.0 mi East 6.9 mph - N/A   Clear
3:15 PM 69.8 °F 41.0 °F 35% 30.19 in 10.0 mi NNE 3.5 mph - N/A   Clear
3:35 PM 71.6 °F 41.0 °F 33% 30.19 in 10.0 mi NNE 4.6 mph - N/A   Clear
3:55 PM 71.6 °F 42.8 °F 35% 30.19 in 10.0 mi ENE 8.1 mph - N/A   Scattered Clouds
4:15 PM 71.6 °F 44.6 °F 38% 30.18 in 10.0 mi East 5.8 mph - N/A   Clear
4:35 PM 71.6 °F 44.6 °F 38% 30.18 in 10.0 mi East 8.1 mph - N/A   Scattered Clouds
4:55 PM 71.6 °F 42.8 °F 35% 30.17 in 10.0 mi East 10.4 mph - N/A   Scattered Clouds
5:15 PM 69.8 °F 42.8 °F 38% 30.17 in 10.0 mi ENE 5.8 mph - N/A   Mostly Cloudy
5:35 PM 69.8 °F 44.6 °F 40% 30.17 in 10.0 mi East 6.9 mph - N/A   Mostly Cloudy
6:15 PM 69.8 °F 44.6 °F 40% 30.17 in 10.0 mi East 4.6 mph - N/A   Scattered Clouds
6:35 PM 68.0 °F 46.4 °F 46% 30.17 in 10.0 mi Calm Calm - N/A   Scattered Clouds
6:55 PM 69.8 °F 46.4 °F 43% 30.17 in 10.0 mi Calm Calm - N/A   Clear
7:15 PM 69.8 °F 46.4 °F 43% 30.17 in 10.0 mi Calm Calm - N/A   Scattered Clouds
7:35 PM 68.0 °F 46.4 °F 46% 30.17 in 10.0 mi SE 4.6 mph - N/A   Scattered Clouds
7:55 PM 66.2 °F 46.4 °F 49% 30.17 in 10.0 mi Calm Calm - N/A   Clear
8:15 PM 66.2 °F 46.4 °F 49% 30.17 in 10.0 mi Calm Calm - N/A   Clear
8:35 PM 64.4 °F 46.4 °F 52% 30.16 in 10.0 mi Calm Calm - N/A   Clear
8:55 PM 64.4 °F 46.4 °F 52% 30.17 in 10.0 mi Calm Calm - N/A   Clear
9:15 PM 64.4 °F 46.4 °F 52% 30.17 in 10.0 mi Calm Calm - N/A   Clear
9:35 PM 62.6 °F 48.2 °F 59% 30.18 in 10.0 mi Calm Calm - N/A   Clear
9:55 PM 62.6 °F 46.4 °F 55% 30.18 in 10.0 mi Calm Calm - N/A   Clear
10:15 PM 60.8 °F 48.2 °F 63% 30.18 in 10.0 mi Calm Calm - N/A   Scattered Clouds
10:35 PM 60.8 °F 46.4 °F 59% 30.18 in 10.0 mi Calm Calm - N/A   Clear
11:15 PM 60.8 °F 46.4 °F 59% 30.17 in 10.0 mi Calm Calm - N/A   Clear
11:55 PM 60.8 °F 48.2 °F 63% 30.16 in 10.0 mi Calm Calm - N/A   Clear